Allen Army Airfield
PABI : now visible

Airfield :











YOU CAN JOIN US ON...

 
LOGIN :

Register | Disclaimer

   EN    FR    IT 

 









Legend :    VFR   Marginal VFR   IFR   Intensive IFR   Very Intensive IFR
Visi :
Ceiling :
>= 8 km
>= 3000ft
5 to 8 km
1000 to 3000 ft
1500m to 5 km
500 to 1000 ft
800 to 1500m
200 to 500 ft
< 800m
< 200 ft
Symbols :   Thunderstorms  Fog  Heavy snow  Heavy precipitations  Wind > 20 kt






- Airport Elevation : 1291 ft
- IATA code : BIG


PABI - Allen Army

CURRENT METAR :
  • 311653Z 11010KT 10SM FEW050 FEW090 SCT120 SCT150 BKN200 13/08 A2963 RMK AO2 SLP034 T01330083 $

EXPIRED METARs :
  • 311553Z 10009KT 10SM FEW050 FEW090 SCT120 BKN150 OVC200 13/08 A2963 RMK AO2 SLP036 T01280083 $
  • 311453Z 10009KT 10SM FEW050 FEW090 SCT120 BKN150 OVC200 13/08 A2965 RMK AO2 SLP037 VIRGA DSNT ALQDS T01280083 58008 $

Expired Forecast.
PAZA FIR / North America



MET'MAP, your aeronautical weather chart ! - Copyright ORBIFLY December 2007 - Disclaimer

ORBIFLY MET'MAP TEAM :

Programming & Development : Alexandra Zaïnal
Concept & original design : Baudouin d'Aumeries
Assistance for programming : Marc-Olivier Méhu
Technical & hardware support : Manuel Goepfert

Contact : metmap@orbifly.com




SOURCES & CREDITS :

   NOAA       Earth
Advisory